Home   Weather   USA   Kitty Hawk   Past weeks
Flag for USA

Past Weather in Kitty Hawk, North Carolina, USA — Yesterday and Last 2 Weeks

Currently: 48 °F. Clear. (Weather station: First Flight Airport, USA). See more current weather

Past Weather in Kitty Hawk — Graph

°F

Kitty Hawk Temperature Yesterday

Maximum temperature yesterday: 58 °F (at 5:20 am)
Minimum temperature yesterday: 46 °F (at 8:30 pm)
Average temperature yesterday: 52 °F

High & Low Weather Summary for the Past Weeks

 TemperatureHumidityPressure
High82 °F (Apr 15, 2:10 pm)100% (Apr 18, 8:50 pm)30.25 "Hg (Apr 18, 8:50 pm)
Low44 °F (Apr 7, 10:50 pm)23% (Apr 14, 1:00 pm)29.54 "Hg (Apr 12, 3:10 am)
Average61 °F70%30.00 "Hg
* Reported Apr 7 9:00 pm — Apr 22 9:20 pm, Kitty Hawk. Weather by CustomWeather, © 2024

Note: Actual official high and low records may vary slightly from our data, if they occured in-between our weather recording intervals... More about our weather records

Kitty Hawk Weather History for the Previous 24 Hours

Scroll right to see more
 ConditionsComfort  
Time TempWeatherWind HumidityBarometerVisibility
9:20 pm
Mon, Apr 22
48 °FPassing clouds.5 mph51%30.14 "Hg10 mi
8:30 pm48 °FClear.5 mph56%30.13 "Hg10 mi
8:00 pm47 °FClear.5 mph59%30.12 "Hg10 mi
7:30 pm48 °FSunny.5 mph58%30.11 "Hg10 mi
7:20 pm48 °FSunny.6 mph57%30.11 "Hg10 mi
7:10 pm49 °FSunny.No wind57%30.10 "Hg10 mi
6:50 pm49 °FSunny.8 mph55%30.10 "Hg10 mi
6:30 pm50 °FSunny.7 mph52%30.10 "Hg10 mi
6:10 pm49 °FSunny.8 mph54%30.09 "Hg10 mi
5:50 pm49 °FSunny.6 mph56%30.07 "Hg10 mi
5:40 pm50 °FSunny.10 mph56%30.07 "Hg10 mi
5:00 pm51 °FSunny.9 mph52%30.07 "Hg10 mi
4:10 pm49 °FOvercast.10 mph54%30.08 "Hg10 mi
3:30 pm50 °FPartly sunny.10 mph56%30.10 "Hg10 mi
3:00 pm50 °FBroken clouds.7 mph56%30.12 "Hg10 mi
2:20 pm51 °FScattered clouds.9 mph58%30.09 "Hg10 mi
2:10 pm51 °FScattered clouds.8 mph57%30.09 "Hg10 mi
1:30 pm50 °FBroken clouds.6 mph56%30.12 "Hg10 mi
1:00 pm51 °FBroken clouds.12 mph57%30.10 "Hg10 mi
12:20 pm51 °FBroken clouds.10 mph59%30.10 "Hg10 mi
12:00 pm51 °FBroken clouds.13 mph58%30.10 "Hg10 mi
11:30 am51 °FScattered clouds.6 mph54%30.10 "Hg10 mi
11:00 am52 °FSunny.9 mph54%30.09 "Hg10 mi
10:20 am53 °FPartly sunny.7 mph58%30.08 "Hg10 mi
9:30 am52 °FSunny.12 mph53%30.05 "Hg10 mi
9:00 am50 °FSunny.13 mph54%30.03 "Hg10 mi
8:10 am49 °FOvercast.12 mph53%30.04 "Hg10 mi
7:30 am49 °FMore clouds than sun.12 mph55%30.01 "Hg10 mi
6:50 am49 °FOvercast.10 mph57%30.01 "Hg10 mi
6:30 am49 °FOvercast.6 mph54%30.01 "Hg10 mi
6:20 am49 °FOvercast.10 mph54%30.01 "Hg10 mi
6:10 am49 °FOvercast.10 mph53%30.01 "Hg10 mi
5:30 am49 °FOvercast.13 mph55%29.99 "Hg10 mi
5:20 am49 °FOvercast.12 mph57%29.99 "Hg10 mi
5:00 am49 °FOvercast.10 mph59%29.99 "Hg10 mi
4:20 am49 °FOvercast.12 mph59%29.98 "Hg10 mi
3:20 am49 °FOvercast.12 mph71%29.97 "Hg10 mi
3:00 am48 °FOvercast.8 mph76%29.97 "Hg10 mi
2:40 am47 °FOvercast.7 mph81%29.97 "Hg10 mi
2:20 am47 °FOvercast.7 mph83%29.98 "Hg10 mi
2:10 am47 °FOvercast.8 mph84%29.97 "Hg10 mi
1:30 am47 °FMostly cloudy.6 mph87%29.98 "Hg10 mi
1:10 am47 °FMostly cloudy.8 mph88%29.99 "Hg10 mi
12:50 am46 °FMostly cloudy.3 mph90%29.99 "Hg10 mi
12:30 am46 °FOvercast.6 mph91%29.99 "Hg10 mi
12:10 am46 °FMostly cloudy.8 mph93%29.98 "Hg10 mi
11:30 pm
Sun, Apr 21
46 °FMostly cloudy.8 mph95%29.97 "Hg10 mi
11:00 pm47 °FOvercast.7 mph96%29.96 "Hg10 mi
10:10 pm47 °FOvercast.8 mph97%29.97 "Hg10 mi
Weather by CustomWeather, © 2024

See weather overview